Flag for Germany Weather past 2 weeks in Oer-Erkenschwick, North Rhine-Westphalia, Germany

Now
51 °F

Light rain. Low clouds.


Feels Like: 49 °F
Forecast: 35 / 51 °F
Wind: 5 mph from North

Location: Duesseldorf

Current Time: Apr 27, 2015 at 4:21:52 AM

Latest Report: Apr 27, 2015 at 4:00 AM


Visibility: 5 mi

Pressure: 29.64 "Hg

Humidity: 97%

Dew point: 50 °F

Location of Oer-ErkenschwickLocation

Historic Weather in Oer-Erkenschwick — Graph

°F

Oer-Erkenschwick temperature yesterday

Maximum temperature yesterday: 62 °F (at 4:00 PM)
Minimum temperature yesterday: 52 °F (at 12:00 AM)
Average temperature yesterday: 56 °F

Past Weeks' High & Low Weather Summary

 TemperatureHumidityPressure
High74 °F (Apr 15, 4:00 PM)98% (Apr 27, 3:00 AM)30.49 "Hg (Apr 27, 3:00 AM)
Low34 °F (Apr 19, 6:00 AM)29% (Apr 21, 4:00 PM)29.64 "Hg (Apr 27, 3:00 AM)
Average53 °F65%30.15 "Hg
* Reported Apr 12 3:00 AM — Apr 27 3:00 AM, Oer-Erkenschwick, Weather by CustomWeather, © 2015

Note: Actual official high and low records may vary slightly from our data, if they occured in-between our weather recording intervals... More about our weather records

Advertising

Oer-Erkenschwick weather history for previous 24 hours

 ConditionsComfort  
Time TempWeatherWind HumidityBarometerVisibility
3:00 AM
Mon, Apr 27
51 °FLight rain. Low clouds.5 mph98%29.64 "Hg4 mi
2:00 AM52 °FRain. Low clouds.5 mph97%29.65 "Hg3 mi
1:00 AM53 °FLight rain. Low clouds.3 mph96%29.66 "Hg5 mi
12:00 AM53 °FLight rain. Overcast.2 mph95%29.67 "Hg9 mi
10:00 PM
Sun, Apr 26
55 °FOvercast.1 mph86%29.68 "Hg22 mi
9:00 PM56 °FOvercast.2 mph82%29.68 "Hg19 mi
8:00 PM58 °FOvercast.2 mph78%29.68 "Hg19 mi
7:00 PM60 °FOvercast.2 mph69%29.68 "Hg22 mi
6:00 PM60 °FOvercast.3 mph69%29.69 "Hg25 mi
4:00 PM62 °FOvercast.5 mph69%29.70 "Hg25 mi
3:00 PM60 °FOvercast.2 mph72%29.72 "Hg19 mi
2:00 PM58 °FSprinkles. Overcast.5 mph80%29.73 "Hg7 mi
1:00 PM60 °FOvercast.3 mph71%29.74 "Hg19 mi
12:00 PM59 °FOvercast.6 mph75%29.75 "Hg17 mi
10:00 AM58 °FOvercast.5 mph83%29.75 "Hg14 mi
9:00 AM56 °FOvercast.5 mph90%29.75 "Hg9 mi
8:00 AM54 °FOvercast.3 mph91%29.75 "Hg12 mi
7:00 AM54 °FOvercast.3 mph91%29.74 "Hg11 mi
6:00 AM53 °FOvercast.3 mph93%29.73 "Hg12 mi
4:00 AM54 °FOvercast.5 mph93%29.75 "Hg16 mi
Weather by CustomWeather, © 2015

See weather overviewHow to use our weather pages